| time (UTC) | temp C | wind direction | speed KPH | gust KPH | rain 1hr cm | rain 24hr cm | rain mn cm | humidity % | barometer mb |
| 20260503214534 | 15 | 142 | 4.8 | 0.0 | 0.00 | 0.00 | 0.00 | 76 | 1012.4 |
| 20260503214040 | 15 | 188 | 4.8 | 0.0 | 0.00 | 0.00 | 0.00 | 77 | 1012.4 |
| 20260503213536 | 15 | 149 | 4.8 | 0.0 | 0.00 | 0.00 | 0.00 | 77 | 1012.4 |
| 20260503213034 | 15 | 209 | 4.8 | 0.0 | 0.00 | 0.00 | 0.00 | 77 | 1012.4 |
| 20260503212536 | 15 | 182 | 4.8 | 0.0 | 0.00 | 0.00 | 0.00 | 76 | 1012.4 |
| 20260503212035 | 15 | 175 | 4.8 | 0.0 | 0.00 | 0.00 | 0.00 | 76 | 1012.4 |
| 20260503211535 | 15 | 163 | 4.8 | 0.0 | 0.00 | 0.00 | 0.00 | 75 | 1012.4 |
| 20260503211033 | 15 | 198 | 4.8 | 0.0 | 0.00 | 0.00 | 0.00 | 74 | 1012.5 |
| 20260503210533 | 15 | 360 | 4.8 | 0.0 | 0.00 | 0.00 | 0.00 | 74 | 1012.5 |
| 20260503210034 | 15 | 189 | 8.0 | 0.0 | 0.00 | 0.00 | 0.00 | 75 | 1012.5 |
| 20260503205535 | 15 | 196 | 8.0 | 0.0 | 0.00 | 0.00 | 0.00 | 71 | 1012.4 |
| 20260503205033 | 15 | 173 | 6.4 | 0.0 | 0.00 | 0.00 | 0.00 | 74 | 1012.4 |
| 20260503204532 | 15 | 196 | 8.0 | 0.0 | 0.00 | 0.00 | 0.00 | 74 | 1012.4 |
| 20260503204032 | 15 | 226 | 9.7 | 0.0 | 0.00 | 0.00 | 0.00 | 72 | 1012.4 |
| 20260503203533 | 15 | 215 | 8.0 | 0.0 | 0.00 | 0.00 | 0.00 | 71 | 1012.4 |
| 20260503203046 | 15 | 175 | 6.4 | 0.0 | 0.00 | 0.00 | 0.00 | 69 | 1012.4 |
| 20260503202537 | 16 | 214 | 4.8 | 0.0 | 0.00 | 0.00 | 0.00 | 67 | 1012.4 |
| 20260503202034 | 16 | 203 | 6.4 | 0.0 | 0.00 | 0.00 | 0.00 | 67 | 1012.4 |
| 20260503201534 | 16 | 197 | 6.4 | 0.0 | 0.00 | 0.00 | 0.00 | 65 | 1012.4 |
| 20260503201032 | 16 | 157 | 6.4 | 0.0 | 0.00 | 0.00 | 0.00 | 67 | 1012.7 |
| 20260503200532 | 16 | 213 | 4.8 | 0.0 | 0.00 | 0.00 | 0.00 | 65 | 1012.7 |
| 20260503200032 | 16 | 173 | 4.8 | 0.0 | 0.00 | 0.00 | 0.00 | 66 | 1012.7 |
| 20260503195530 | 16 | 228 | 6.4 | 0.0 | 0.00 | 0.00 | 0.00 | 67 | 1012.8 |
| 20260503195031 | 16 | 136 | 6.4 | 0.0 | 0.00 | 0.00 | 0.00 | 65 | 1012.8 |
| 20260503194539 | 16 | 162 | 4.8 | 0.0 | 0.00 | 0.00 | 0.00 | 66 | 1012.8 |
| 20260503194029 | 16 | 182 | 6.4 | 0.0 | 0.00 | 0.00 | 0.00 | 68 | 1012.9 |
| 20260503193530 | 15 | 213 | 6.4 | 0.0 | 0.00 | 0.00 | 0.00 | 67 | 1012.9 |
| 20260503193027 | 15 | 164 | 4.8 | 0.0 | 0.00 | 0.00 | 0.00 | 67 | 1012.9 |
| 20260503192525 | 15 | 184 | 4.8 | 0.0 | 0.00 | 0.00 | 0.00 | 70 | 1012.9 |
| 20260503192025 | 15 | 182 | 6.4 | 0.0 | 0.00 | 0.00 | 0.00 | 71 | 1012.9 |
| 20260503191524 | 15 | 360 | 6.4 | 0.0 | 0.00 | 0.00 | 0.00 | 74 | 1012.9 |
| 20260503191024 | 15 | 169 | 8.0 | 0.0 | 0.00 | 0.00 | 0.00 | 75 | 1013.1 |
| 20260503190524 | 15 | 198 | 6.4 | 0.0 | 0.00 | 0.00 | 0.00 | 73 | 1013.1 |
| 20260503190035 | 15 | 172 | 6.4 | 0.0 | 0.00 | 0.00 | 0.00 | 74 | 1013.1 |
| 20260503185524 | 15 | 207 | 6.4 | 0.0 | 0.00 | 0.00 | 0.00 | 74 | 1013.2 |
| 20260503185022 | 15 | 196 | 6.4 | 0.0 | 0.00 | 0.00 | 0.00 | 73 | 1013.2 |
| 20260503184524 | 15 | 182 | 4.8 | 0.0 | 0.00 | 0.00 | 0.00 | 75 | 1013.2 |
| 20260503184022 | 15 | 123 | 4.8 | 0.0 | 0.00 | 0.00 | 0.00 | 75 | 1013.4 |
| 20260503183521 | 15 | 188 | 6.4 | 0.0 | 0.00 | 0.00 | 0.00 | 76 | 1013.4 |
| 20260503183021 | 15 | 180 | 6.4 | 0.0 | 0.00 | 0.00 | 0.00 | 74 | 1013.4 |
| 20260503182520 | 15 | 171 | 4.8 | 0.0 | 0.00 | 0.00 | 0.00 | 74 | 1013.4 |
| 20260503182020 | 14 | 223 | 4.8 | 0.0 | 0.00 | 0.00 | 0.00 | 75 | 1013.4 |
| 20260503181519 | 14 | 253 | 4.8 | 0.0 | 0.00 | 0.00 | 0.00 | 76 | 1013.4 |
| 20260503181018 | 14 | 175 | 4.8 | 0.0 | 0.00 | 0.00 | 0.00 | 77 | 1013.4 |
| 20260503180518 | 14 | 213 | 4.8 | 0.0 | 0.00 | 0.00 | 0.00 | 78 | 1013.4 |
| 20260503180018 | 14 | 186 | 4.8 | 0.0 | 0.00 | 0.00 | 0.00 | 77 | 1013.4 |
| 20260503175517 | 13 | 223 | 4.8 | 0.0 | 0.00 | 0.00 | 0.00 | 77 | 1013.4 |
| 20260503175016 | 13 | 174 | 4.8 | 0.0 | 0.00 | 0.00 | 0.00 | 76 | 1013.4 |
| 20260503174514 | 13 | 200 | 6.4 | 0.0 | 0.00 | 0.00 | 0.00 | 77 | 1013.4 |
| 20260503174013 | 13 | 231 | 6.4 | 0.0 | 0.00 | 0.00 | 0.00 | 78 | 1013.4 |
| 20260503173513 | 13 | 261 | 3.2 | 0.0 | 0.00 | 0.00 | 0.00 | 80 | 1013.4 |
| 20260503173012 | 13 | 265 | 3.2 | 0.0 | 0.00 | 0.00 | 0.00 | 84 | 1013.4 |
| 20260503172514 | 13 | 192 | 4.8 | 0.0 | 0.00 | 0.00 | 0.00 | 82 | 1013.2 |
| 20260503172012 | 13 | 182 | 4.8 | 0.0 | 0.00 | 0.00 | 0.00 | 84 | 1013.2 |
| 20260503171511 | 13 | 184 | 3.2 | 0.0 | 0.00 | 0.00 | 0.00 | 84 | 1013.2 |
| 20260503171011 | 13 | 178 | 4.8 | 0.0 | 0.00 | 0.00 | 0.00 | 83 | 1013.0 |
| 20260503170511 | 13 | 216 | 4.8 | 0.0 | 0.00 | 0.00 | 0.00 | 83 | 1013.0 |
| 20260503150556 | 12 | 146 | 1.6 | 0.0 | 0.00 | 0.00 | 0.00 | 92 | 1012.5 |
| 20260503131049 | 11 | 246 | 3.2 | 0.0 | 0.00 | 0.00 | 0.00 | 94 | 1011.3 |
| 20260503130549 | 11 | 275 | 1.6 | 0.0 | 0.00 | 0.00 | 0.00 | 94 | 1011.3 |
| 20260503110543 | 11 | 298 | 0.0 | 0.0 | 0.00 | 0.00 | 0.00 | 93 | 1011.2 |
| 20260503081541 | 11 | 171 | 4.8 | 0.0 | 0.00 | 0.00 | 0.00 | 95 | 1011.8 |
| 20260503081036 | 11 | 219 | 4.8 | 0.0 | 0.00 | 0.00 | 0.00 | 95 | 1011.9 |
| 20260503080535 | 11 | 171 | 3.2 | 0.0 | 0.00 | 0.00 | 0.00 | 95 | 1011.9 |
| 20260503072532 | 11 | 198 | 3.2 | 0.0 | 0.00 | 0.00 | 0.00 | 95 | 1011.7 |
| 20260503072031 | 11 | 162 | 3.2 | 0.0 | 0.00 | 0.00 | 0.00 | 95 | 1011.7 |
| 20260503071532 | 11 | 188 | 3.2 | 0.0 | 0.00 | 0.00 | 0.00 | 95 | 1011.7 |
| 20260503071031 | 11 | 169 | 3.2 | 0.0 | 0.00 | 0.00 | 0.00 | 95 | 1011.6 |
| 20260503070530 | 11 | 171 | 4.8 | 0.0 | 0.00 | 0.00 | 0.00 | 95 | 1011.6 |
| 20260503055026 | 11 | 173 | 1.6 | 0.0 | 0.00 | 0.00 | 0.00 | 95 | 1011.4 |
| 20260503054543 | 11 | 169 | 1.6 | 0.0 | 0.00 | 0.00 | 0.00 | 95 | 1011.4 |
| 20260503054026 | 11 | 184 | 3.2 | 0.0 | 0.00 | 0.00 | 0.00 | 95 | 1011.4 |
| 20260503053526 | 11 | 162 | 3.2 | 0.0 | 0.00 | 0.00 | 0.00 | 95 | 1011.4 |
| 20260503053036 | 11 | 299 | 1.6 | 0.0 | 0.00 | 0.00 | 0.00 | 95 | 1011.4 |
| 20260503052529 | 11 | 177 | 3.2 | 0.0 | 0.00 | 0.00 | 0.00 | 95 | 1011.4 |
| 20260503052025 | 11 | 219 | 3.2 | 0.0 | 0.00 | 0.00 | 0.00 | 95 | 1011.4 |
| 20260503051525 | 11 | 210 | 3.2 | 0.0 | 0.00 | 0.00 | 0.00 | 95 | 1011.4 |
| 20260503051024 | 11 | 202 | 3.2 | 0.0 | 0.00 | 0.00 | 0.00 | 95 | 1011.5 |
| 20260503050524 | 11 | 192 | 3.2 | 0.0 | 0.00 | 0.00 | 0.00 | 95 | 1011.5 |
| 20260503050025 | 11 | 252 | 3.2 | 0.0 | 0.00 | 0.00 | 0.00 | 95 | 1011.5 |
| 20260503045524 | 11 | 176 | 3.2 | 0.0 | 0.00 | 0.00 | 0.00 | 95 | 1011.7 |
| 20260503045024 | 12 | 232 | 4.8 | 0.0 | 0.00 | 0.00 | 0.00 | 95 | 1011.7 |
| 20260503044524 | 12 | 229 | 3.2 | 0.0 | 0.00 | 0.00 | 0.00 | 95 | 1011.7 |
| 20260503044023 | 12 | 199 | 3.2 | 0.0 | 0.00 | 0.00 | 0.00 | 94 | 1011.4 |
| 20260503043523 | 12 | 157 | 3.2 | 0.0 | 0.00 | 0.00 | 0.00 | 94 | 1011.4 |
| 20260503043025 | 12 | 229 | 3.2 | 0.0 | 0.00 | 0.00 | 0.00 | 95 | 1011.4 |
| 20260503042523 | 12 | 167 | 4.8 | 0.0 | 0.00 | 0.00 | 0.00 | 94 | 1011.1 |
| 20260503042022 | 12 | 178 | 4.8 | 0.0 | 0.00 | 0.00 | 0.00 | 94 | 1011.1 |
| 20260503041523 | 11 | 161 | 4.8 | 0.0 | 0.00 | 0.00 | 0.00 | 94 | 1011.1 |
| 20260503041024 | 12 | 163 | 4.8 | 0.0 | 0.00 | 0.00 | 0.00 | 94 | 1010.8 |
| 20260503040521 | 12 | 204 | 6.4 | 0.0 | 0.00 | 0.00 | 0.00 | 94 | 1010.8 |
| 20260503040032 | 12 | 178 | 4.8 | 0.0 | 0.00 | 0.00 | 0.00 | 94 | 1010.8 |
| 20260503035521 | 12 | 178 | 4.8 | 0.0 | 0.00 | 0.00 | 0.00 | 94 | 1010.6 |
| 20260503035021 | 12 | 200 | 4.8 | 0.0 | 0.00 | 0.00 | 0.00 | 94 | 1010.6 |
| 20260503034521 | 12 | 200 | 3.2 | 0.0 | 0.00 | 0.00 | 0.00 | 94 | 1010.6 |
| 20260503034020 | 12 | 207 | 3.2 | 0.0 | 0.00 | 0.00 | 0.00 | 94 | 1010.5 |
| 20260503033520 | 12 | 196 | 3.2 | 0.0 | 0.00 | 0.00 | 0.00 | 94 | 1010.5 |
| 20260503033027 | 12 | 190 | 3.2 | 0.0 | 0.00 | 0.00 | 0.00 | 94 | 1010.5 |
| 20260503032520 | 12 | 162 | 3.2 | 0.0 | 0.00 | 0.00 | 0.00 | 94 | 1010.2 |
| 20260503032020 | 12 | 168 | 3.2 | 0.0 | 0.00 | 0.00 | 0.00 | 94 | 1010.2 |
| 20260503031520 | 12 | 161 | 4.8 | 0.0 | 0.00 | 0.00 | 0.00 | 94 | 1010.2 |
| 20260503031020 | 12 | 177 | 3.2 | 0.0 | 0.00 | 0.00 | 0.00 | 94 | 1009.9 |
| 20260503030519 | 12 | 196 | 3.2 | 0.0 | 0.00 | 0.00 | 0.00 | 94 | 1009.9 |
| 20260503030025 | 12 | 167 | 3.2 | 0.0 | 0.00 | 0.00 | 0.00 | 94 | 1009.9 |
| 20260503025519 | 12 | 161 | 4.8 | 0.0 | 0.00 | 0.00 | 0.00 | 93 | 1009.8 |
| 20260503025019 | 12 | 149 | 4.8 | 0.0 | 0.00 | 0.00 | 0.00 | 93 | 1009.8 |
| 20260503024519 | 12 | 186 | 4.8 | 0.0 | 0.00 | 0.00 | 0.00 | 93 | 1009.8 |
| 20260503024019 | 12 | 194 | 4.8 | 0.0 | 0.00 | 0.00 | 0.00 | 93 | 1009.4 |
| 20260503023519 | 12 | 190 | 6.4 | 0.0 | 0.00 | 0.00 | 0.00 | 93 | 1009.4 |
| 20260503023019 | 12 | 194 | 4.8 | 0.0 | 0.00 | 0.00 | 0.00 | 93 | 1009.4 |
| 20260503022518 | 12 | 198 | 6.4 | 0.0 | 0.00 | 0.00 | 0.00 | 93 | 1009.4 |
| 20260503022017 | 12 | 167 | 6.4 | 0.0 | 0.00 | 0.00 | 0.00 | 92 | 1009.4 |
| 20260503021518 | 12 | 178 | 4.8 | 0.0 | 0.00 | 0.00 | 0.00 | 92 | 1009.4 |
| 20260503021018 | 12 | 205 | 4.8 | 0.0 | 0.00 | 0.00 | 0.00 | 92 | 1009.5 |
| 20260503020518 | 13 | 172 | 6.4 | 0.0 | 0.00 | 0.00 | 0.00 | 92 | 1009.5 |
| 20260503020018 | 13 | 196 | 4.8 | 0.0 | 0.00 | 0.00 | 0.00 | 91 | 1009.5 |
| 20260503015517 | 13 | 199 | 4.8 | 0.0 | 0.00 | 0.00 | 0.00 | 91 | 1009.4 |
| 20260503015022 | 13 | 176 | 4.8 | 0.0 | 0.00 | 0.00 | 0.00 | 90 | 1009.4 |
| 20260503014517 | 13 | 180 | 4.8 | 0.0 | 0.00 | 0.00 | 0.00 | 90 | 1009.4 |
| 20260503014017 | 13 | 200 | 6.4 | 0.0 | 0.00 | 0.00 | 0.00 | 90 | 1009.5 |
| 20260503013517 | 13 | 162 | 6.4 | 0.0 | 0.00 | 0.00 | 0.00 | 89 | 1009.5 |
| 20260503013021 | 14 | 187 | 6.4 | 0.0 | 0.00 | 0.00 | 0.00 | 88 | 1009.5 |
| 20260503012517 | 14 | 207 | 6.4 | 0.0 | 0.00 | 0.00 | 0.00 | 88 | 1009.4 |
| 20260503012017 | 14 | 200 | 6.4 | 0.0 | 0.00 | 0.00 | 0.00 | 88 | 1009.4 |
| 20260503011521 | 15 | 178 | 6.4 | 0.0 | 0.00 | 0.00 | 0.00 | 87 | 1009.4 |
| 20260503011016 | 15 | 197 | 6.4 | 0.0 | 0.00 | 0.00 | 0.00 | 87 | 1009.3 |
| 20260503010517 | 15 | 195 | 4.8 | 0.0 | 0.00 | 0.00 | 0.00 | 86 | 1009.3 |
| 20260503010020 | 15 | 167 | 4.8 | 0.0 | 0.00 | 0.00 | 0.00 | 86 | 1009.3 |
| 20260503005515 | 15 | 160 | 6.4 | 0.0 | 0.00 | 0.00 | 0.00 | 85 | 1009.3 |
| 20260503005015 | 15 | 171 | 6.4 | 0.0 | 0.00 | 0.00 | 0.00 | 86 | 1009.3 |
| 20260503004517 | 15 | 186 | 6.4 | 0.0 | 0.00 | 0.00 | 0.00 | 86 | 1009.3 |
| 20260503004014 | 15 | 182 | 4.8 | 0.0 | 0.00 | 0.00 | 0.00 | 85 | 1009.3 |
| 20260503003515 | 15 | 163 | 4.8 | 0.0 | 0.00 | 0.00 | 0.00 | 84 | 1009.3 |
| 20260503003014 | 15 | 182 | 4.8 | 0.0 | 0.00 | 0.00 | 0.00 | 84 | 1009.3 |
| 20260503002517 | 15 | 360 | 4.8 | 0.0 | 0.00 | 0.00 | 0.00 | 84 | 1009.4 |
| 20260503002017 | 15 | 202 | 6.4 | 0.0 | 0.00 | 0.00 | 0.00 | 84 | 1009.4 |
| 20260503001513 | 15 | 199 | 6.4 | 0.0 | 0.00 | 0.00 | 0.00 | 84 | 1009.4 |
| 20260503001014 | 15 | 219 | 4.8 | 0.0 | 0.00 | 0.00 | 0.00 | 84 | 1009.5 |
| 20260503000513 | 15 | 360 | 4.8 | 0.0 | 0.00 | 0.00 | 0.00 | 85 | 1009.5 |
| 20260503000013 | 15 | 216 | 6.4 | 0.0 | 0.00 | 0.00 | 0.00 | 85 | 1009.5 |
| 20260502235513 | 15 | 169 | 6.4 | 0.0 | 0.00 | 0.00 | 0.00 | 85 | 1009.5 |
| 20260502235013 | 15 | 158 | 6.4 | 0.0 | 0.00 | 0.00 | 0.00 | 85 | 1009.5 |
| 20260502234522 | 15 | 218 | 8.0 | 0.0 | 0.00 | 0.00 | 0.00 | 84 | 1009.5 |
| 20260502234012 | 15 | 227 | 6.4 | 0.0 | 0.00 | 0.00 | 0.00 | 84 | 1009.6 |
| 20260502233513 | 15 | 202 | 6.4 | 0.0 | 0.00 | 0.00 | 0.00 | 84 | 1009.6 |
| 20260502233014 | 15 | 199 | 6.4 | 0.0 | 0.00 | 0.00 | 0.00 | 83 | 1009.6 |
| 20260502232512 | 15 | 197 | 6.4 | 0.0 | 0.00 | 0.00 | 0.00 | 84 | 1009.6 |
| 20260502232011 | 15 | 188 | 6.4 | 0.0 | 0.00 | 0.00 | 0.00 | 83 | 1009.6 |
| 20260502231511 | 15 | 163 | 6.4 | 0.0 | 0.00 | 0.00 | 0.00 | 84 | 1009.6 |
| 20260502231011 | 15 | 206 | 8.0 | 0.0 | 0.00 | 0.00 | 0.00 | 84 | 1009.9 |
| 20260502230511 | 15 | 207 | 6.4 | 0.0 | 0.00 | 0.00 | 0.00 | 84 | 1009.9 |
| 20260502230011 | 15 | 202 | 6.4 | 0.0 | 0.00 | 0.00 | 0.00 | 84 | 1009.9 |
| 20260502225509 | 15 | 176 | 6.4 | 0.0 | 0.00 | 0.00 | 0.00 | 85 | 1009.7 |
| 20260502225010 | 15 | 154 | 4.8 | 0.0 | 0.00 | 0.00 | 0.00 | 86 | 1009.7 |
| 20260502224509 | 15 | 180 | 6.4 | 0.0 | 0.00 | 0.00 | 0.00 | 87 | 1009.7 |
| 20260502224009 | 15 | 194 | 8.0 | 0.0 | 0.00 | 0.00 | 0.00 | 87 | 1010.4 |
| 20260502223509 | 15 | 178 | 9.7 | 0.0 | 0.00 | 0.00 | 0.00 | 87 | 1010.4 |
| 20260502223009 | 15 | 175 | 8.0 | 0.0 | 0.00 | 0.00 | 0.00 | 86 | 1010.4 |
| 20260502222508 | 15 | 189 | 9.7 | 0.0 | 0.00 | 0.00 | 0.00 | 85 | 1010.8 |
| 20260502222007 | 15 | 198 | 8.0 | 0.0 | 0.00 | 0.00 | 0.00 | 86 | 1010.8 |
| 20260502221507 | 15 | 216 | 8.0 | 0.0 | 0.00 | 0.00 | 0.00 | 86 | 1010.8 |
| 20260502221007 | 15 | 193 | 8.0 | 0.0 | 0.00 | 0.00 | 0.00 | 86 | 1011.1 |
| 20260502220507 | 15 | 148 | 8.0 | 0.0 | 0.00 | 0.00 | 0.00 | 87 | 1011.1 |
| 20260502220011 | 15 | 201 | 9.7 | 0.0 | 0.00 | 0.00 | 0.00 | 87 | 1011.1 |
| 20260502215507 | 15 | 197 | 11.3 | 0.0 | 0.00 | 0.00 | 0.00 | 87 | 1011.2 |
| 20260502215007 | 15 | 152 | 11.3 | 0.0 | 0.00 | 0.00 | 0.00 | 87 | 1011.2 |